www.pogodaiklimat.ru

Погода и климат >> Архив погоды >> Россия >> город Севастополь >> Севастополь


АРХИВ ПОГОДЫ в Севастополе

Время (UTC), дата Ветер
(напр.,м/с)
 
Видим.   Явления Облачность Т
(С)
Тd
(С)
f
(%)
Тe
(С)
Тes
(С)
Комфортность P
(гПа)
Po
(гПа)
Тmin
(С)
Tmax
(С)
R
(мм)
R24
(мм)
S
(см)
15 19.06 СВ 4 20 км в посл. час гроза 9 баллов +20.6 +16.8 79 +24 +24 комфорт 1011.4 1010.7 0.7
18 19.06 СВ 4 20 км 2 балла +20.0 +17.6 86 +23 +23 комфорт 1011.4 1010.7 +23.5 0.7
21 19.06 штиль 0 20 км 1 балл +16.8 +14.6 87 +17 +17 прохладно 1012.7 1012.0
00 20.06 В 2 20 км ясно +14.0 +12.0 88 +13 +13 холодно 1011.4 1010.7
03 20.06 В 2 20 км 1 балл +13.3 +11.4 88 +13 +13 очень
холодно
1011.4 1010.7 +13.0
06 20.06 З 2 20 км 2 балла +20.1 +15.1 73 +23 +30 комфорт 1011.4 1010.7 +13.0
09 20.06 СЗ 3 20 км 6 баллов +22.0 +14.9 64 +25 +32 комфорт 1012.7 1012.0
12 20.06 СЗ 2 20 км 9 баллов +22.5 +19.7 84 +29 +30 очень
душно
1011.4 1010.7
15 20.06 З 2 20 км 7 баллов +22.8 +19.8 83 +29 +30 очень
душно
1011.4 1010.7
18 20.06 штиль 0 20 км 7 баллов +22.4 +19.4 83 +28 +28 душно 1011.4 1010.7 +23.3
21 20.06 В 2 20 км 2 балла +20.2 +18.1 88 +24 +24 комфорт 1011.4 1010.7
00 21.06 штиль 0 20 км ясно +17.9 +16.2 90 +18 +18 по сезону 1011.4 1010.7
03 21.06 В 2 50 км 1 балл +17.2 +15.5 90 +18 +18 прохладно 1011.4 1010.7 +16.7
06 21.06 СЗ 3 20 км 2 балла +21.3 +18.1 82 +26 +32 душно 1011.4 1010.7 +16.7
09 21.06 З 3 20 км 2 балла +23.3 +20.2 83 +31 +43 очень
душно
1011.4 1010.7
12 21.06 З 3 20 км 2 балла +24.7 +21.2 81 +31 +41 очень
душно
1011.4 1010.7
15 21.06 З 4 20 км 4 балла +24.7 +20.6 78 +31 +32 очень
душно
1010.0 1009.3
18 21.06 штиль 0 20 км 4 балла +23.0 +19.2 79 +29 +29 очень
душно
1011.4 1010.7 +25.1
21 21.06 В 2 20 км 4 балла +19.8 +16.8 83 +23 +23 комфорт 1012.7 1012.0
00 22.06 В 3 20 км 7 баллов +18.1 +15.5 85 +18 +18 по сезону 1011.4 1010.7
03 22.06 В 1 20 км 9 баллов +18.4 +15.6 84 +20 +20 по сезону 1011.4 1010.7 +18.0
06 22.06 штиль 0 20 км 10 баллов +21.1 +18.3 84 +25 +25 комфорт 1012.7 1012.0 +18.0
09 22.06 СЗ 1 20 км 9 баллов +23.3 +19.6 80 +30 +32 очень
душно
1014.0 1013.3
12 22.06 З 3 20 км 4 балла +23.9 +19.2 75 +29 +36 душно 1014.0 1013.3
15 22.06 СЗ 6 20 км 2 балла +23.9 +15.9 61 +27 +28 жарко 1014.0 1013.3
18 22.06 З 2 20 км 1 балл +21.8 +17.2 75 +26 +26 душно 1015.4 1014.7 +24.4
21 22.06 В 2 20 км 4 балла +18.0 +15.3 84 +19 +19 прохладно 1015.4 1014.7
00 23.06 В 3 20 км 1 балл +16.4 +13.5 83 +16 +16 прохладно 1015.4 1014.7
03 23.06 В 2 20 км 2 балла +15.5 +12.8 84 +15 +16 очень
холодно
1015.4 1014.7 +15.2
06 23.06 В 1 20 км 7 баллов +21.9 +16.8 73 +26 +29 душно 1016.7 1016.0 +15.2
09 23.06 З 4 20 км 7 баллов +22.5 +18.7 79 +28 +32 душно 1016.7 1016.0
12 23.06 ЮЗ 5 20 км 2 балла +26.3 +17.1 57 +30 +37 душно 1014.0 1013.3
15 23.06 Ю 6 20 км 2 балла +25.3 +21.4 79 +32 +33 очень
душно
1012.7 1012.0
18 23.06 Ю 4 20 км 4 балла +22.3 +19.1 82 +28 +28 душно 1012.7 1012.0 +26.5
21 23.06 Ю 4 20 км 2 балла +21.0 +18.6 86 +26 +26 душно 1011.4 1010.7
00 24.06 СВ 2 20 км гроза без осадков 9 баллов +19.2 +17.2 88 +22 +22 комфорт 1011.4 1010.7
03 24.06 ЮВ 5 10 км гроза без осадков 10 баллов +17.8 +16.0 89 +17 +17 холодно 1008.7 1008.0 +17.7 17
06 24.06 В 4 20 км 9 баллов +20.6 +18.2 86 +25 +25 комфорт 1010.0 1009.3 +17.7 17
09 24.06 СВ 3 20 км 9 баллов +23.0 +19.8 82 +30 +31 очень
душно
1010.0 1009.3
12 24.06 СЗ 6 20 км 4 балла +21.9 +19.1 84 +27 +31 душно 1011.4 1010.7
15 24.06 СЗ 5 20 км 2 балла +21.9 +18.9 83 +27 +29 душно 1011.4 1010.7 0.1
18 24.06 СЗ 4 20 км 2 балла +21.2 +18.6 85 +26 +26 душно 1014.0 1013.3 +24.3
21 24.06 В 1 20 км 1 балл +20.0 +17.8 87 +24 +24 комфорт 1014.0 1013.3
00 25.06 В 1 20 км ясно +18.2 +16.0 87 +20 +20 по сезону 1015.4 1014.7
03 25.06 В 1 20 км ясно +18.2 +16.0 87 +20 +20 прохладно 1015.4 1014.7 +17.5
06 25.06 СЗ 1 20 км 1 балл +22.3 +18.9 81 +28 +37 душно 1016.7 1016.0 +17.5
09 25.06 СЗ 3 20 км 2 балла +23.0 +20.1 84 +30 +42 очень
душно
1016.7 1016.0
12 25.06 СЗ 3 20 км 1 балл +24.1 +20.6 81 +30 +41 очень
душно
1018.0 1017.3
15 25.06 СЗ 3 20 км 1 балл +24.4 +20.5 79 +30 +33 очень
душно
1016.7 1016.0
18 25.06 С 1 20 км ясно +22.3 +19.8 86 +28 +28 душно 1016.7 1016.0 +24.4
21 25.06 В 3 20 км ясно +19.7 +17.1 85 +22 +22 комфорт 1016.7 1016.0
00 26.06 В 1 20 км ясно +18.0 +16.0 88 +19 +19 по сезону 1016.7 1016.0
03 26.06 В 3 20 км ясно +18.1 +16.1 88 +18 +19 прохладно 1016.7 1016.0 +17.7
06 26.06 СВ 1 20 км ясно +24.0 +17.5 67 +28 +39 душно 1016.7 1016.0 +17.7
09 26.06 СЗ 4 20 км 2 балла +23.5 +19.8 80 +29 +39 душно 1015.4 1014.7

 

Местоположение метеостанции Севастополь (город Севастополь, Россия): широта 44.62 долгота 33.53 высота над уровнем моря 6 м.

В архиве по умолчанию представлена погода в Севастополе за последнюю неделю. Архивные данные за месяц целиком и за предыдущие месяцы, начиная с января 2011 года, Вы можете получить, выбрав интересующий диапазон дат из раскрывающегося списка и нажав кнопку "Ввод!".

Внимание! Время в таблицах - всемирное. Для получения местного времени необходимо прибавить поправку, которая в Севастополе равна 3 ч.

Смотрите также архив погоды в соседних городах и на ближайших метеорологических станциях:

Погода в Херсонесском Маяке (город Севастополь, Россия) (13 км)
Погода в Ай-Петри (Крым, Россия) (47 км)
Погода в Ялте (Крым, Россия) (53 км)
Погода в Симферополе (Крым, Россия) (57 км)
Погода в Никитском саду (Крым, Россия) (58 км)
Погода в Евпатории (Крым, Россия) (64 км)
Погода в Алуште (Крым, Россия) (69 км)
Погода в Белогорске (Крым, Россия) (97 км)
Погода в Клепинино (Крым, Россия) (113 км)
Погода в Черноморском (Крым, Россия) (119 км)

Пояснения к столбцам:

Ветер - указаны скорость ветра в м/с - средняя за 10 мин, порывы в срок и между сроками (в фигурных скобках) и направление, откуда дует ветер: С - северный, СВ - северо-восточный, В - восточный, ЮВ - юго-восточный, Ю - южный, ЮЗ - юго-западный, З - западный, СЗ - северо-западный.
Видимость - горизонтальная дальность видимости в метрах или километрах. При видимости от 1 до 10 км при отсутствии осадков обычно наблюдается дымка, при ухудшении видимости до 1 км и менее - туман. В сухую погоду видимость может ухудшаться дымом, пылью или мглою.
Явления - указаны атмосферные явления, наблюдавшиеся в срок или в последний час перед сроком; фигурными скобками обозначены явления, наблюдавшиеся между сроками (за 1-3 часа до срока); квадратными скобками обозначены град или гололедные отложения с указанием их диаметра в мм.
Облачность - указаны через наклонную черту общая и нижняя облачность в баллах и высота нижней границы облаков в метрах; квадратными скобками обозначены формы облаков: Ci - перистые, Cs - перисто-слоистые, Cc - перисто-кучевые, Ac - высококучевые, As - высокослоистые, Sc - слоисто-кучевые, Ns - слоисто-дождевые, Cu - кучевые, Cb - кучево-дождевые. Подробнее классификацию облаков см. в Атласе облаков (PDF).
T - Температура воздуха - температура, измеренная на высоте 2 м над землей.
Td - Температура точки росы - температура, при понижении до которой содержащийся в воздухе водяной пар достигнет насыщения.
f - Относительная влажность воздуха - влажноcть воздуха, измеренная на высоте 2 м над землей.
Te - Эффективная температура - температура, которую ощущает одетый по сезону человек в тени. Характеристика душности погоды. При расчете учитывается влияние влажности воздуха и скорости ветра на теплоощущения человека.
Tes - Эффективная температура на солнце - температура, которую ощущает человек, с поправкой на солнечный нагрев. Характеристика знойности погоды. Зависит от высоты солнца над горизонтом, облачности и скорости ветра. Ночью, в пасмурную погоду, а также при ветре 12 м/с и более поправка равна нулю.
P - Атмосферное давление - приведенное к уровню моря атмосферное давление.
Po - Атмосферное давление - измеренное на уровне метеостанции атмосферное давление.
Tmin - Минимальная температура - минимум температуры воздуха на высоте 2 м над землей.
Tmax - Максимальная температура - максимум температуры воздуха на высоте 2 м над землей.
R - Количество осадков - Количество выпавших осадков за период времени, мм. При наведении курсора мыши на число - период времени, за который выпало указанное количество осадков.
R24 - Количество осадков - Количество выпавших осадков за 24 часа, мм.
S - Снежный покров - Высота снежного покрова, см. При наведении курсора мыши на число - состояние снежного покрова и степень покрытия местности в баллах.